Saipan, MP

4:56 PM ChST on February 21, 2017 (GMT +1000)
Saipan International

Weather History for PGSN - October, 2012

Change the Weather History Date:

Thursday, October 11, 2012

  Actual Average Record
Temperature  
Mean Temperature 80 °F -  
Max Temperature 84 °F 84 °F 89 °F (1997)
Min Temperature 75 °F 76 °F 75 °F (2000)
Cooling Degree Days 14    
Growing Degree Days 30 (Base 50)    
Moisture  
Dew Point 75 °F    
Average Humidity 84    
Maximum Humidity 94    
Minimum Humidity 69    
Precipitation  
Precipitation 1.62 in - - ()
Sea Level Pressure  
Sea Level Pressure 29.88 in    
Wind  
Wind Speed 10 mph (SSW)    
Max Wind Speed 23 mph    
Max Gust Speed 31 mph    
Visibility 7 miles    
Events Rain    
Averages and records for this station are not official NWS values.
T = Trace of Precipitation, MM = Missing Value Source: NWS Daily Summary

Daily Weather History Graph

Daily Weather History Graph

Search for Another Location

Airport or City:

Trip Planner

Search our weather history database for the weather conditions in past years. The results will help you decide how hot, cold, wet, or windy it might be!

Date:

Astronomy

Oct. 11, 2012 Rise Set
Actual Time 6:08 AM ChST 5:59 PM ChST
Civil Twilight 5:46 AM ChST 6:20 PM ChST
Nautical Twilight 5:21 AM ChST 6:45 PM ChST
Astronomical Twilight 4:56 AM ChST 7:10 PM ChST
Moon 1:49 AM ChST (10/11) 2:35 PM ChST (10/11)
Length of Visible Light 12h 34m
Length of Day
11h 51m
Waning Crescent, 23% of the Moon is Illuminated
Oct 11
Waning Crescent
Oct 15
New
Oct 22
First Quarter
Oct 30
Full
Nov 7
Last Quarter

Hourly Weather History & Observations

Time (ChST) Temp. Heat Index Dew Point Humidity Pressure Visibility Wind Dir Wind Speed Gust Speed Precip Events Conditions
12:27 AM 82.4 °F 89.5 °F 75.2 °F 79% 29.83 in 10.0 mi South 8.1 mph - N/A   Mostly Cloudy
12:54 AM 81.0 °F 86.7 °F 75.0 °F 82% 29.89 in 10.0 mi South 8.1 mph - N/A   Overcast
1:54 AM 81.0 °F 86.2 °F 73.9 °F 79% 29.88 in 10.0 mi South 11.5 mph 19.6 mph N/A   Mostly Cloudy
2:54 AM 81.0 °F 86.7 °F 75.0 °F 82% 29.88 in 10.0 mi SSW 9.2 mph - N/A   Overcast
3:54 AM 81.0 °F 87.3 °F 75.9 °F 85% 29.88 in 10.0 mi SSW 8.1 mph - 0.00 in   Overcast
4:54 AM 81.0 °F 86.7 °F 75.0 °F 82% 29.88 in 10.0 mi SW 4.6 mph - N/A   Clear
5:45 AM 75.2 °F - 73.4 °F 94% 29.85 in 1.0 mi West 8.1 mph 21.9 mph 0.35 in Rain Heavy Rain
5:54 AM 75.9 °F - 73.0 °F 91% 29.91 in 3.0 mi NNW 5.8 mph - 0.41 in Rain Light Rain
6:54 AM 77.0 °F - 73.9 °F 90% 29.90 in 5.0 mi South 6.9 mph - 0.14 in Rain Light Rain
7:54 AM 80.1 °F 85.4 °F 75.9 °F 87% 29.92 in 10.0 mi SW 8.1 mph - 0.05 in   Mostly Cloudy
8:54 AM 81.0 °F 87.3 °F 75.9 °F 85% 29.93 in 10.0 mi SW 9.2 mph - 0.01 in   Partly Cloudy
9:54 AM 84.9 °F 96.6 °F 78.1 °F 80% 29.94 in 10.0 mi SSW 11.5 mph - N/A   Partly Cloudy
10:54 AM 84.9 °F 92.1 °F 73.9 °F 69% 29.92 in 10.0 mi SSW 10.4 mph - N/A   Scattered Clouds
11:54 AM 84.9 °F 92.1 °F 73.9 °F 69% 29.93 in 10.0 mi WSW 10.4 mph - N/A   Scattered Clouds
12:54 PM 82.0 °F 89.4 °F 75.9 °F 82% 29.90 in 10.0 mi South 6.9 mph 16.1 mph 0.01 in Rain Light Rain
1:22 PM 84.2 °F 94.1 °F 77.0 °F 79% 29.81 in 2.5 mi South 9.2 mph - 0.00 in   Haze
1:31 PM 82.4 °F 89.5 °F 75.2 °F 79% 29.81 in 10.0 mi South 9.2 mph - 0.00 in   Scattered Clouds
1:43 PM 80.6 °F 86.2 °F 75.2 °F 84% 29.81 in 1.2 mi SSW 23.0 mph 31.1 mph 0.00 in Rain Rain
1:45 PM 80.6 °F 86.2 °F 75.2 °F 84% 29.81 in 0.8 mi SSW 11.5 mph 31.1 mph 0.05 in Rain Heavy Rain
1:54 PM 79.0 °F - 73.9 °F 84% 29.88 in 8.0 mi SSW 11.5 mph - 0.21 in Rain Light Rain
2:54 PM 82.9 °F 90.8 °F 75.9 °F 79% 29.86 in 10.0 mi South 10.4 mph - 0.00 in   Overcast
3:23 PM 80.6 °F 85.4 °F 73.4 °F 79% 29.80 in 10.0 mi South 15.0 mph - N/A   Mostly Cloudy
3:54 PM 80.1 °F 85.1 °F 75.0 °F 85% 29.87 in 10.0 mi South 13.8 mph - 0.00 in   Overcast
4:07 PM 80.6 °F 86.2 °F 75.2 °F 84% 29.81 in 8.0 mi South 17.3 mph 24.2 mph 0.00 in Rain Light Rain
4:16 PM 80.6 °F 86.2 °F 75.2 °F 84% 29.81 in 4.0 mi South 19.6 mph 25.3 mph 0.02 in Rain Heavy Rain
4:20 PM 80.6 °F 86.2 °F 75.2 °F 84% 29.82 in 4.0 mi South 13.8 mph 25.3 mph 0.03 in Rain Rain
4:39 PM 80.6 °F 86.2 °F 75.2 °F 84% 29.82 in 4.0 mi South 13.8 mph 21.9 mph 0.12 in Rain Rain
4:49 PM 80.6 °F 86.2 °F 75.2 °F 84% 29.83 in 4.0 mi South 12.7 mph 23.0 mph 0.13 in Rain Rain
4:54 PM 80.1 °F 85.4 °F 75.9 °F 87% 29.89 in 6.0 mi South 15.0 mph 23.0 mph 0.13 in Rain Light Rain
5:07 PM 80.6 °F 86.2 °F 75.2 °F 84% 29.83 in 2.5 mi WSW 8.1 mph 21.9 mph 0.02 in Rain Rain
5:15 PM 80.6 °F 86.2 °F 75.2 °F 84% 29.83 in 4.0 mi SW 10.4 mph - 0.07 in Rain Rain
5:54 PM 80.1 °F 85.4 °F 75.9 °F 87% 29.91 in 5.0 mi SSW 11.5 mph 18.4 mph 0.10 in   Mostly Cloudy
6:01 PM 78.8 °F - 75.2 °F 89% 29.85 in 10.0 mi SSW 13.8 mph 19.6 mph N/A   Mostly Cloudy
6:28 PM 77.0 °F - 73.4 °F 89% 29.87 in 2.5 mi WSW 16.1 mph 28.8 mph 0.04 in   Mostly Cloudy
6:41 PM 77.0 °F - 73.4 °F 89% 29.87 in 4.0 mi WSW 15.0 mph 25.3 mph 0.10 in   Overcast
6:54 PM 75.9 °F - 72.0 °F 87% 29.94 in 7.0 mi WSW 8.1 mph - 0.12 in Rain Light Rain
7:28 PM 77.0 °F - 73.4 °F 89% 29.87 in 2.0 mi Calm Calm - 0.05 in Rain Light Rain
7:38 PM 77.0 °F - 73.4 °F 89% 29.88 in 6.0 mi Calm Calm - 0.06 in Rain Light Rain
7:51 PM 75.2 °F - 71.6 °F 89% 29.90 in 1.8 mi WNW 16.1 mph 23.0 mph 0.13 in Rain Heavy Rain
7:54 PM 75.0 °F - 71.1 °F 87% 29.96 in 7.0 mi WNW 11.5 mph 23.0 mph 0.20 in Rain Light Rain
8:54 PM 79.0 °F - 73.9 °F 84% 29.96 in 7.0 mi SSW 3.5 mph - 0.06 in Rain Light Rain
9:54 PM 80.1 °F 85.1 °F 75.0 °F 85% 29.95 in 10.0 mi SW 5.8 mph - 0.05 in   Scattered Clouds
10:54 PM 81.0 °F 86.7 °F 75.0 °F 82% 29.95 in 10.0 mi SW 5.8 mph - N/A   Mostly Cloudy
11:23 PM 80.6 °F 86.2 °F 75.2 °F 84% 29.88 in 8.0 mi WSW 16.1 mph 23.0 mph N/A   Mostly Cloudy
11:32 PM 78.8 °F - 73.4 °F 83% 29.88 in 4.0 mi WSW 15.0 mph 24.2 mph 0.03 in   Overcast
11:51 PM 78.8 °F - 73.4 °F 83% 29.88 in 6.0 mi SW 12.7 mph 23.0 mph 0.13 in Rain Light Rain
11:54 PM 77.0 °F - 73.9 °F 90% 29.95 in 6.0 mi SW 13.8 mph 20.7 mph 0.13 in Rain Light Rain